Preview of NWS' New Version of Forecast
This preview is not operational and should not be used for support decisions.
Latest weather observations around

Boyd Deep Canyon Reserve (UCNRS) (UCDE)

Using English Units (Switch to International System of Units)
Date/ Time (PDT) Wind (mph) Vis. (mi) Weather Sky Cond. Temp (°F) Rel. Humidity Wind Chill (°F) Heat Index (°F) Pressure Precip. (in)
Air Dwpt 6 hour Altimeter (inHg) Sea level (inHg) 1 hr 3 hr 6 hr
Max Min
Aug 25 21:40 NNE 1   Clear   92 54     28%   90 29.9        
Aug 25 21:30 NE 1   Clear   92 56     30%   90 29.9        
Aug 25 21:20 N 4   Clear   92 58     32%   91 29.9        
Aug 25 21:10 NE 2   Clear   92 59     33%   91 29.9        
Aug 25 21:00 NE 3   Clear   93 59     33%   92 29.89        
Aug 25 20:50 N 3   Clear   94 59     32%   93 29.89        
Aug 25 20:40 SSW 5   Clear   95 52     24%   92 29.89        
Aug 25 20:30 SSW 7   Clear   95 52     24%   92 29.88        
Aug 25 20:20 SSW 8   Clear   95 52     23%   92 29.88        
Aug 25 20:10 SSW 4   Clear   96 53     24%   93 29.88        
Aug 25 20:00 WSW 2   Clear   95 58     30%   94 29.87        
Aug 25 19:50 E 3   Clear   95 59     31%   94 29.87        
Aug 25 19:40 E 3   Clear   95 60     31%   95 29.87        
Aug 25 19:30 ESE 2   Clear   95 61     32%   95 29.87        
Aug 25 19:20 SE 3   Clear   95 59     31%   95 29.87        
Aug 25 19:10 ESE 4   Clear   95 59     31%   95 29.86        
Aug 25 19:00 ESE 4   Clear   95 61     32%   96 29.86        
Aug 25 18:50 ESE 7   Clear   95 61     32%   95 29.86        
Aug 25 18:40 ESE 8   Clear   95 61     32%   96 29.86        
Aug 25 18:30 E 8   Clear   96 61     32%   96 29.86        
Aug 25 18:20 E 9   Clear   96 62     33%   97 29.86        
Aug 25 18:10 ESE 9   Clear   96 62     33%   97 29.86        
Aug 25 18:00 ESE 8   Clear   96 64     35%   98 29.87        
Aug 25 17:50 ESE 8   Clear   96 65     36%   99 29.87        
Aug 25 17:40 ESE 7   Clear   97 66     37%   101 29.87        
Aug 25 17:30 E 8   Clear   97 67     38%   101 29.87        
Aug 25 17:20 E 8   Clear   96 67     40%   100 29.88        
Aug 25 17:10 E 7   Clear   96 69     41%   102 29.88        
Aug 25 17:00 E 8   Clear   97 69     40%   103 29.88        
Aug 25 16:50 E 7   Clear   98 69     40%   104 29.88        
Aug 25 16:40 E 6   Clear   98 69     40%   104 29.88        
Aug 25 16:30 E 8   Clear   98 69     40%   104 29.89        
Aug 25 16:20 ESE 7   Clear   97 69     40%   104 29.89        
Aug 25 16:10 E 6   Clear   98 68     38%   104 29.89        
Aug 25 16:00 E 7   Clear   98 69     40%   104 29.89        
Aug 25 15:50 E 6   Clear   98 69     40%   104 29.9        
Aug 25 15:40 ESE 6   Clear   98 69     40%   104 29.9        
Aug 25 15:30 E 8   Clear   98 69     40%   104 29.91        
Aug 25 15:20 E 6   Clear   98 69     39%   104 29.91        
Aug 25 15:10 E 6   Clear   98 68     38%   104 29.92        
Aug 25 15:00 E 6   Clear   98 68     38%   104 29.92        
Aug 25 14:30 E 7   Clear   97 67     38%   102 29.93        
Aug 25 14:20 E 6   Clear   97 68     39%   102 29.94        
Aug 25 14:10 E 6   Clear   97 69     40%   103 29.94        
Aug 25 14:00 E 5   Clear   97 70     42%   104 29.95        
Aug 25 13:50 E 4   Clear   96 70     42%   103 29.95        
Aug 25 13:40 E 6   Clear   95 70     44%   102 29.95        
Aug 25 13:30 ESE 6   Clear   96 70     44%   102 29.96        
Aug 25 13:20 ESE 4   Clear   95 69     43%   101 29.96        
Aug 25 13:10 E 4   Clear   96 69     43%   102 29.96        
Aug 25 13:00 ENE 3   Clear   94 70     46%   101 29.96        
Aug 25 12:50 E 5   Clear   93 71     48%   100 29.97        
Aug 25 12:40 E 6   Clear   93 71     49%   100 29.97        
Aug 25 12:30 E 6   Clear   93 71     50%   100 29.98        
Aug 25 12:20 E 6   Clear   93 72     50%   101 29.98        
Aug 25 12:10 ESE 4   Clear   92 72     52%   100 29.99        
Aug 25 12:00 ESE 4   Clear   92 72     52%   99 29.99        
Aug 25 11:50 NE 6   Clear   92 72     51%   100 29.99        
Aug 25 11:40 ENE 5   Clear   92 71     52%   99 30        
Aug 25 11:30 ESE 4   Clear   91 72     54%   98 30        
Aug 25 11:20 E 5   Clear   92 72     52%   99 30.01        
Aug 25 11:10 SE 4   Clear   90 72     54%   97 30.01        
Aug 25 11:00 E 5   Clear   90 72     56%   97 30.01        
Notice The following observation data may not be complete
Aug 25 10:50     Clear            %              
Aug 25 10:40 E 5   Clear   89 72     57%   96 30.02        
Aug 25 10:30 ENE 5   Clear   89 72     57%   96 30.02        
Aug 25 10:20 ENE 6   Clear   89 72     58%   95 30.02        
Aug 25 10:10 ENE 4   Clear   89 72     59%   96 30.02        
Aug 25 10:00 E 4   Clear   89 72     58%   96 30.03        
Aug 25 09:50 NNE 4   Clear   88 72     59%   96 30.03        
Aug 25 09:40 NNE 3   Clear   88 72     59%   94 30.03        
Aug 25 09:30 NNE 4   Clear   87 71     59%   94 30.03        
Aug 25 09:20 NNE 5   Clear   87 71     59%   92 30.03        
Aug 25 09:10 N 6   Clear   87 70     58%   92 30.03        
Aug 25 09:00 NE 6   Clear   86 70     59%   91 30.03        
Notice The following observation data may not be complete
Aug 25 08:50     Clear            %              
Notice The following observation data may not be complete
Aug 25 08:40     Clear            %              
Notice The following observation data may not be complete
Aug 25 08:30     Clear            %              
Notice The following observation data may not be complete
Aug 25 08:20     Clear            %              
Aug 25 08:10 NNE 2   Clear   86 71     62%   91 30.02        
Aug 25 08:00 NNE 2   Clear   85 71     64%   90 30.02        
Aug 25 07:50 NNE 2   Clear   84 71     66%   89 30.02        
Aug 25 07:40 NNE 3   Clear   83 71     67%   88 30.02        
Aug 25 07:30 NNE 3   Clear   84 71     66%   88 30.02        
Aug 25 07:20 NE 1   Clear   83 71     67%   88 30.02        
Aug 25 07:10 Calm   Clear   81 71     72%   85 30.02        
Aug 25 07:00 NE 1   Clear   81 71     73%   84 30.02        
Aug 25 06:50 NE 1   Clear   80 71     73%   84 30.01        
Aug 25 06:40 Calm   Clear   80 71     73%   84 30.01        
Aug 25 06:30 Calm   Clear   80 71     73%   83 30.01        
Aug 25 06:20 Calm   Clear   80 71     73%   83 30        
Aug 25 06:10 NE 1   Clear   80 70     72%   84 30        
Aug 25 06:00 NE 1   Clear   80 70     72%   84 30        
Aug 25 05:50 E 1   Clear   80 71     72%   84 29.99        
Aug 25 05:40 SSE 1   Clear   80 71     72%   84 29.99        
Aug 25 05:30 SSW 1   Clear   80 70     72%   84 29.99        
Aug 25 05:20 NE 1   Clear   80 71     72%   84 29.99        
Aug 25 05:10 NNE 2   Clear   81 71     72%   84 29.99        
Aug 25 05:00 NNE 3   Clear   81 71     71%   85 29.99        
Aug 25 03:50 ESE 1   Clear   82 69     65%   86 29.98        
Aug 25 03:40 NE 2   Clear   83 70     65%   86 29.98        
Aug 25 03:30 NE 3   Clear   83 70     65%   87 29.98        
Aug 25 03:20 ENE 4   Clear   83 71     66%   88 29.98        
Aug 25 03:10 E 3   Clear   83 71     66%   88 29.98        
Aug 25 03:00 E 4   Clear   83 71     66%   88 29.98        
Aug 25 02:40 E 2   Clear   83 71     66%   88 29.97        
Aug 25 02:30 E 2   Clear   83 71     66%   88 29.97        
Aug 25 02:20 E 2   Clear   84 71     65%   88 29.97        
Aug 25 02:10 E 3   Clear   84 71     66%   88 29.97        
Aug 25 02:00 ENE 3   Clear   84 70     64%   89 29.97        
Aug 25 01:50 E 2   Clear   84 71     64%   89 29.97        
Aug 25 01:40 E 3   Clear   84 71     64%   89 29.97        
Aug 25 01:30 E 3   Clear   84 70     63%   89 29.97        
Aug 25 01:20 ESE 3   Clear   85 70     62%   89 29.97        
Aug 25 01:10 ESE 3   Clear   85 70     62%   89 29.97        
Aug 25 01:00 ESE 3   Clear   85 71     63%   90 29.97        
Aug 25 00:10 ESE 8   Clear   84 71     64%   89 29.97        
Aug 25 00:00 ESE 6   Clear   85 71     64%   90 29.97        
Aug 24 23:50 ESE 6   Clear   85 71     64%   90 29.97        
Aug 24 23:40 ESE 7   Clear   85 71     63%   90 29.97        
Aug 24 23:30 ESE 8   Clear   85 71     62%   91 29.97        
Aug 24 23:20 ESE 8   Clear   86 71     62%   91 29.97        
Aug 24 23:10 ESE 7   Clear   86 70     60%   91 29.97        
Aug 24 23:00 ESE 8   Clear   87 70     57%   91 29.97        
Aug 24 22:50 ESE 6   Clear   87 70     56%   92 29.97        
Aug 24 22:40 ESE 6   Clear   88 69     54%   93 29.97        
Aug 24 22:30 ESE 7   Clear   90 68     49%   93 29.96        
Aug 24 22:20 ESE 3   Clear   90 67     46%   93 29.96        
Aug 24 22:10 E 4   Clear   90 66     45%   93 29.96        
Aug 24 22:00 E 3   Clear   91 66     44%   93 29.96        
Aug 24 21:50 E 3   Clear   91 65     43%   93 29.96        
Aug 24 21:40 E 2   Clear   91 65     43%   93 29.95        
Aug 24 21:30 ESE 2   Clear   91 65     43%   93 29.95        
Aug 24 21:20 E 3   Clear   91 65     43%   93 29.95        
Aug 24 21:10 E 3   Clear   91 65     43%   93 29.94        
Aug 24 21:00 E 5   Clear   91 65     43%   93 29.94        
Aug 24 20:50 E 4   Clear   91 65     43%   93 29.94        
Aug 24 20:40 ESE 5   Clear   91 66     43%   94 29.93        
Aug 24 20:30 E 4   Clear   91 65     42%   94 29.93        
Aug 24 20:20 ESE 5   Clear   92 65     42%   94 29.93        
Aug 24 20:10 ESE 4   Clear   92 65     41%   94 29.92        
Aug 24 20:00 E 6   Clear   92 65     41%   94 29.92        
Notice The following observation data may not be complete
Aug 24 19:50     Clear            %              
Aug 24 19:40 E 4   Clear   92 65     41%   94 29.92        
Aug 24 19:30 E 6   Clear   92 66     42%   95 29.91        
Aug 24 19:20 E 5   Clear   92 65     41%   95 29.91        
Aug 24 19:10 E 7   Clear   93 65     41%   95 29.91        
Aug 24 19:00 E 7   Clear   93 66     41%   96 29.91        
Aug 24 18:50 E 7   Clear   93 66     41%   96 29.91        
Aug 24 18:40 E 8   Clear   93 65     40%   96 29.91        
Aug 24 18:30 E 7   Clear   93 65     40%   96 29.91        
Aug 24 18:20 E 8   Clear   94 64     38%   96 29.91        
Aug 24 18:10 E 7   Clear   95 64     37%   97 29.91        
Aug 24 18:00 E 8   Clear   95 64     36%   97 29.91        
Aug 24 17:50 E 6   Clear   96 63     34%   97 29.91        
Aug 24 17:40 SE 4   Clear   96 62     33%   97 29.91        
Aug 24 17:30 E 5   Clear   95 63     35%   97 29.91        
Aug 24 17:20 E 6   Clear   95 64     36%   98 29.91        
Aug 24 17:10 E 7   Clear   96 64     35%   98 29.91        
Notice The following observation data may not be complete
Aug 24 17:00     Clear            %              
Aug 24 10:30 E 7   Clear   89 69     52%   94 30        
Aug 24 10:20 E 4   Clear   89 70     54%   94 30        
Aug 24 10:10 E 4   Clear   90 69     50%   94 30        
Notice The following observation data may not be complete
Aug 24 10:00     Clear            %              
Aug 24 08:50 ENE 5   Clear   86 68     54%   90 29.99        
Aug 24 08:40 ENE 4   Clear   87 67     52%   90 29.99        
Aug 24 08:30 NNE 4   Clear   86 65     50%   88 29.99        
Aug 24 08:20 NE 4   Clear   86 66     51%   88 29.98        
Aug 24 08:10 NNE 3   Clear   86 62     44%   86 29.98        
Aug 24 08:00 NNE 2   Clear   86 61     43%   86 29.98        
Aug 24 07:50 NNW 1   Clear   85 64     49%   86 29.98        
Aug 24 07:40 NNE 2   Clear   85 65     52%   86 29.97        
Aug 24 07:30 NE 1   Clear   84 65     54%   86 29.97        
Aug 24 07:20 ESE 1   Clear   83 65     56%   85 29.97        
Aug 24 07:10 E 1   Clear   80 64     58%   82 29.96        
Aug 24 07:00 N 1   Clear   81 64     56%   82 29.96        
Aug 24 06:50 W 3   Clear   82 58     44%   82 29.96        
Aug 24 06:40 WSW 4   Clear   82 56     41%   81 29.95        
Aug 24 06:30 WSW 4   Clear   81 55     41%   81 29.95        
Aug 24 06:20 WSW 4   Clear   81 55     41%   81 29.95        
Aug 24 06:10 WSW 5   Clear   81 55     41%   81 29.94        
Aug 24 06:00 WSW 4   Clear   81 57     44%   81 29.94        
Aug 24 05:50 SE 1   Clear   80 63     58%   80 29.94        
Aug 24 05:40 ESE 1   Clear   80 64     58%   81 29.93        
Aug 24 05:30 SSW 2   Clear   80 60     51%   81 29.93        
Aug 24 05:20 W 1   Clear   80 62     55%   80 29.93        
Aug 24 05:10 E 1   Clear   80 70     72%   83 29.93        
Notice The following observation data may not be complete
Aug 24 05:00     Clear            %              
Aug 24 03:30 ESE 4   Clear   81 70     69%   85 29.92        
Aug 24 03:20 ESE 3   Clear   82 70     68%   85 29.92        
Aug 24 03:10 SSE 2   Clear   82 69     65%   85 29.92        
Aug 24 03:00 SE 2   Clear   82 69     65%   85 29.92        
Aug 24 02:30 ESE 3   Clear   82 69     65%   85 29.91        
Aug 24 02:20 ESE 4   Clear   82 69     65%   85 29.92        
Aug 24 02:10 ESE 3   Clear   82 68     62%   85 29.92        
Aug 24 02:00 ESE 4   Clear   83 67     59%   85 29.92        
Aug 24 01:40 ESE 5   Clear   83 66     57%   85 29.92        
Aug 24 01:30 SE 4   Clear   83 66     57%   85 29.92        
Aug 24 01:20 ESE 5   Clear   83 66     56%   85 29.92        
Aug 24 01:10 ESE 6   Clear   83 66     56%   85 29.92        
Aug 24 01:00 ESE 7   Clear   83 66     55%   85 29.92        
Aug 24 00:50 ESE 6   Clear   83 66     55%   86 29.91        
Aug 24 00:40 ESE 7   Clear   84 65     54%   86 29.91        
Aug 24 00:30 SE 8   Clear   84 66     54%   86 29.91        
Aug 24 00:20 SE 7   Clear   84 65     53%   86 29.9        
Aug 24 00:10 SE 7   Clear   85 65     52%   87 29.9        
Aug 24 00:00 SE 5   Clear   85 65     51%   87 29.89        
Aug 23 23:50 ESE 6   Clear   86 65     50%   87 29.89        
Aug 23 23:40 ESE 6   Clear   86 64     49%   87 29.89        
Aug 23 23:30 SE 5   Clear   87 62     44%   87 29.89        
Aug 23 23:20 ESE 3   Clear   87 59     39%   86 29.88        
Aug 23 23:10 ESE 5   Clear   87 63     45%   88 29.88        
Aug 23 23:00 SE 4   Clear   87 64     46%   88 29.88        
Aug 23 22:50 ESE 4   Clear   88 56     34%   86 29.88        
Aug 23 22:40 NNW 1   Clear   89 44     21%   85 29.87        
Aug 23 22:30 WNW 2   Clear   90 43     20%   86 29.87        
Aug 23 22:20 WNW 3   Clear   90 43     20%   86 29.86        
Aug 23 22:10 SSW 2   Clear   90 44     20%   86 29.86        
Aug 23 22:00 WSW 4   Clear   91 44     20%   87 29.86        
Aug 23 21:50 W 2   Clear   91 44     20%   87 29.85        
Aug 23 21:40 WNW 5   Clear   92 43     19%   88 29.85        
Aug 23 21:30 WNW 3   Clear   92 42     18%   88 29.84        
Aug 23 21:20 N 3   Clear   92 43     18%   88 29.84        
Aug 23 21:10 NE 3   Clear   93        %     29.83        
Aug 23 21:00 SE 3   Clear   94        %     29.82        
Aug 23 20:50 ESE 3   Clear   94        %     29.82        
Aug 23 20:40 S 2   Clear   93        %     29.81        
Aug 23 20:30 S 1   Clear   93        %     29.8        
Aug 23 20:20 ESE 1   Clear   94        %     29.8        
Aug 23 20:10 Calm   Clear   94        %     29.79        
Aug 23 20:00 SSE 1   Clear   94        %     29.79        
Aug 23 19:50 ESE 2   Clear   94        %     29.79        
Aug 23 19:40 E 3   Clear   95        %     29.79        
Aug 23 19:30 ESE 3   Clear   95 45     18%   91 29.78        
Aug 23 19:20 ENE 5   Clear   95 45     18%   91 29.78        
Aug 23 19:10 E 4   Clear   95 46     19%   92 29.78        
Aug 23 19:00 ENE 4   Clear   96 47     19%   92 29.77        
Aug 23 18:50 ENE 3   Clear   96 48     20%   92 29.77        
Aug 23 18:40 ESE 4   Clear   96 49     21%   92 29.77        
Aug 23 18:30 E 4   Clear   96 50     21%   93 29.77        
Aug 23 18:20 E 3   Clear   98 51     21%   95 29.77        
Aug 23 18:10 ESE 3   Clear   98 52     21%   96 29.77        
Aug 23 18:00 E 4   Clear   98 52     21%   96 29.77        
Aug 23 17:50 ESE 5   Clear   98 51     21%   95 29.77        
Aug 23 17:40 E 6   Clear   98 49     19%   95 29.77        
Aug 23 17:30 E 6   Clear   99 47     17%   95 29.77        
Aug 23 17:20 E 6   Clear   99 45     16%   95 29.77        
Aug 23 17:10 E 6   Clear   99 44     15%   95 29.77        
Aug 23 17:00 ENE 7   Clear   100 42     14%   95 29.77        
Notice The following observation data may not be complete
Aug 23 16:50     Clear            %              
Aug 23 16:40 E 5   Clear   100 41     13%   96 29.77        
Aug 23 16:30 SE 5   Clear   100 40     13%   95 29.77        
Aug 23 16:20 E 6   Clear   99 38     12%   94 29.77        
Aug 23 16:10 E 7   Clear   99 45     16%   95 29.77        
Aug 23 16:00 E 5   Clear   98 44     16%   94 29.78        
Aug 23 15:50 E 6   Clear   99 46     17%   95 29.78        
Aug 23 15:40 E 6   Clear   98 49     19%   95 29.79        
Aug 23 15:30 E 5   Clear   98 53     22%   95 29.79        
Aug 23 15:20 SE 4   Clear   97 53     23%   95 29.79        
Aug 23 15:10 SE 6   Clear   98 55     24%   97 29.79        
Aug 23 15:00 ENE 4   Clear   97 57     26%   96 29.8        
Aug 23 14:50 ENE 7   Clear   97 57     27%   96 29.8        
Aug 23 14:40 E 6   Clear   97 58     28%   96 29.81        
Aug 23 14:30 NE 6   Clear   96 60     30%   96 29.82        
Aug 23 14:20 ENE 6   Clear   95 61     32%   95 29.82        
Aug 23 14:10 ENE 8   Clear   96 62     33%   96 29.82        
Aug 23 14:00 ENE 9   Clear   95 63     35%   97 29.82        
Aug 23 13:50 NE 6   Clear   95 64     36%   97 29.83        
Aug 23 13:40 ENE 4   Clear   94 63     36%   96 29.83        
Aug 23 13:30 NE 7   Clear   94 64     37%   96 29.84        
Aug 23 13:20 E 5   Clear   93 64     38%   95 29.84        
Aug 23 13:10 ENE 5   Clear   94 64     38%   95 29.85        
Aug 23 13:00 E 6   Clear   93 64     39%   95 29.85        
Aug 23 12:50 E 6   Clear   92 65     40%   95 29.85        
Aug 23 12:40 E 4   Clear   93 64     38%   95 29.85        
Aug 23 12:30 NE 4   Clear   94 63     36%   95 29.85        
Aug 23 12:20 ENE 4   Clear   93 64     38%   95 29.86        
Aug 23 12:10 ENE 5   Clear   92 64     40%   93 29.86        
Aug 23 12:00 E 6   Clear   92 64     41%   93 29.87        
Aug 23 11:50 ENE 5   Clear   91 64     41%   93 29.87        
Aug 23 11:40 ENE 7   Clear   91 64     40%   93 29.87        
Aug 23 11:30 NNE 6   Clear   91 62     38%   92 29.87        
Aug 23 11:20 NE 5   Clear   91 60     35%   90 29.88        
Aug 23 11:10 N 6   Clear   90 58     34%   89 29.87        
Aug 23 11:00 N 4   Clear   91 57     32%   90 29.88        
Notice The following observation data may not be complete
Aug 23 10:50     Clear            %              
Aug 23 10:40 NE 4   Clear   90 51     26%   88 29.88        
Aug 23 10:30 NNE 4   Clear   91 46     21%   88 29.88        
Aug 23 10:20 NNE 4   Clear   91 44     20%   87 29.88        
Aug 23 10:10 NNE 3   Clear   92 44     19%   88 29.88        
Aug 23 10:00 NNE 3   Clear   90 43     20%   86 29.88        
Aug 23 09:50 NNE 5   Clear   89 44     21%   86 29.88        
Aug 23 09:40 NNE 5   Clear   89 44     21%   85 29.88        
Aug 23 09:30 NNE 5   Clear   88 43     21%   85 29.87        
Aug 23 09:20 NNE 7   Clear   88 44     22%   85 29.87        
Aug 23 09:10 NNE 7   Clear   88 46     24%   85 29.86        
Aug 23 09:00 NE 5   Clear   88 50     27%   85 29.86        
Aug 23 08:50 ENE 3   Clear   88 51     28%   85 29.86        
Aug 23 08:40 ESE 3   Clear   88 51     28%   85 29.86        
Aug 23 08:30 E 2   Clear   89 49     26%   86 29.86        
Notice The following observation data may not be complete
Aug 23 08:20 N 1   Clear     46      %     29.86        
Aug 23 08:10 E 1   Clear   90 40     18%   86 29.86        
Aug 23 08:00 E 1   Clear   88 34     15%   84 29.86        
Aug 23 07:20 E 1   Clear   81 37     21%   80 29.85        
Aug 23 07:10 E 2   Clear   77 37     24%   76 29.84        
Aug 23 07:00 NE 1   Clear   77 37     24%   75 29.84        
Aug 23 06:50 Calm   Clear   77 37     24%   75 29.84        
Aug 23 06:40 E 1   Clear   76 38     25%   74 29.84        
Aug 23 06:30 Calm   Clear   75 37     25%   74 29.84        
Aug 23 06:20 Calm   Clear   76 37     25%   74 29.84        
Aug 23 06:10 Calm   Clear   76 38     25%   74 29.84        
Aug 23 06:00 Calm   Clear   76 38     25%   75 29.83        
Aug 23 05:50 ESE 1   Clear   77 38     25%   75 29.83        
Aug 23 05:40 SSE 1   Clear   77 39     26%   76 29.83        
Aug 23 05:30 SSW 1   Clear   78 39     25%   76 29.83        
Aug 23 05:20 E 1   Clear   78 40     25%   77 29.83        
Aug 23 05:10 E 2   Clear   79 41     26%   78 29.82        
Aug 23 05:00 E 2   Clear   81 42     25%   80 29.82        
Aug 23 04:50 NE 1   Clear   81 41     24%   80 29.82        
Aug 23 04:40 E 4   Clear   82 39     22%   80 29.81        
Aug 23 04:30 SE 1   Clear   82 40     22%   80 29.81        
Aug 23 04:20 E 3   Clear   83 38     20%   80 29.81        
Aug 23 04:10 ESE 5   Clear   84 36     18%   81 29.81        
Aug 23 04:00 SE 3   Clear   85 35     17%   82 29.8        
Aug 23 03:50 SE 3   Clear   85 37     18%   82 29.8        
Aug 23 03:40 SSE 3   Clear   86 37     18%   82 29.79        
Aug 23 03:30 SSE 3   Clear   86 37     18%   83 29.79        
Aug 23 03:20 S 4   Clear   86 36     17%   83 29.78        
Aug 23 03:10 SE 4   Clear   85 34     16%   82 29.78        
Aug 23 03:00 W 2   Clear   81 32     17%   80 29.77        
Aug 23 02:50 SW 2   Clear   80 34     19%   78 29.77        
Aug 23 02:40 S 2   Clear   79 35     20%   78 29.77        
Aug 23 02:30 ENE 1   Clear   80 34     19%   79 29.76        
Aug 23 02:20 E 3   Clear   80 35     20%   78 29.76        
Aug 23 02:10 ENE 3   Clear   81 36     20%   80 29.75        
Aug 23 02:00 E 3   Clear   82 36     19%   80 29.75        
Aug 23 01:50 E 4   Clear   81 36     20%   80 29.75        
Aug 23 01:40 E 2   Clear   80 37     21%   79 29.75        
Aug 23 01:30 Calm   Clear   81 36     20%   80 29.74        
Aug 23 01:20 ESE 1   Clear   81 36     20%   79 29.74        
Aug 23 01:10 ENE 2   Clear   82 37     20%   80 29.74        
Aug 23 01:00 E 4   Clear   82 36     19%   80 29.74        
Aug 23 00:50 ESE 6   Clear   87 34     15%   83 29.73        
Notice The following observation data may not be complete
Aug 23 00:40 SSW 8   Clear            %     29.73        
Notice The following observation data may not be complete
Aug 23 00:30 SSW 12   Clear            %     29.73        
Aug 23 00:20 SSW 12   Clear   91        %     29.72        
Aug 23 00:10 S 3   Clear   83 34     17%   80 29.72        
Aug 23 00:00 E 3   Clear   83 35     18%   81 29.72        
Notice The following observation data may not be complete
Aug 22 23:50     Clear            %              
Aug 22 23:40 E 5   Clear   83 35     18%   81 29.72        
Aug 22 23:30 ENE 5   Clear   84 34     17%   81 29.71        
Aug 22 23:20 NE 6   Clear   85 34     16%   82 29.71        
Aug 22 23:10 E 6   Clear   86 33     15%   82 29.7        
Aug 22 23:00 NNE 7   Clear   88 31     13%   84 29.7        
Aug 22 22:50 NE 5   Clear   89 29     12%   84 29.7        
Aug 22 22:40 NE 7   Clear   88 29     12%   84 29.69        
Aug 22 22:30 NNE 6   Clear   93 28     10%   87 29.69        
Aug 22 22:20 SSW 9   Clear   94 24     8%   88 29.69        
Aug 22 22:10     Clear   94 24     8%   88 29.69        
Aug 22 22:00 SSW 11   Clear   94 24     8%   88 29.69        
Aug 22 21:50 SSW 9   Clear   94 24     8%   88 29.69        
Aug 22 21:40 SSW 7   Clear   94 24     8%   88 29.69        
Aug 22 21:30 SSW 11   Clear   94 24     8%   88 29.69        
Aug 22 21:20 SSW 8   Clear   95 27     9%   89 29.69        
Aug 22 21:10     Clear   95 27     9%   89 29.69        
Aug 22 21:00     Clear   95 27     9%   89 29.68        
May 15 09:50 N 5   Clear   76 44     31%   75 29.9        
May 15 09:20 N 3   Clear   75 43     32%   74 29.9        
May 15 05:00 Calm   Clear   63 46     55%     29.82        
May 14 23:50 NE 3   Clear   70 45     40%     29.82        
May 14 18:50 N 5   Clear   81 42     25%   80 29.77        
May 14 18:00 NNW 8   Clear   85 38     19%   82 29.77        
May 14 16:20 N 4   Clear   86        %     29.79        
May 14 15:50 NNW 6   Clear   85 27     12%   82 29.79        
May 14 14:30 NE 5   Clear   85 28     13%   81 29.82        
May 14 10:40 N 6   Clear   77 41     27%   76 29.87        
May 14 09:30 N 4   Clear   75 39     27%   73 29.86        
May 14 09:10 N 4   Clear   73 40     30%   72 29.86        
May 14 09:00 N 4   Clear   72 41     33%   71 29.86        
May 14 06:30 NE 3   Clear   59 43     56%     29.82        
May 14 03:30 NNE 3   Clear   62 46     56%     29.81        
May 14 00:40 Calm   Clear   65 44     47%     29.82        
May 13 18:30 NNW 7   Clear   78 40     26%   77 29.8        
May 13 16:50 NNW 6   Clear   81 39     23%   79 29.81        
May 13 16:00 NNW 6   Clear   79 40     25%   77 29.82        
May 13 12:40 NE 7   Clear   77 40     27%   75          
May 13 07:40 NNW 3   Clear   65 43     44%     29.86        
Notice The following observation data may not be complete
May 13 07:20     Clear            %              
May 13 07:10 NNE 3   Clear   66 43     43%     29.85        
May 13 03:00 Calm   Clear   61 42     50%     29.8        
May 13 02:10 NNE 3   Clear   63 40     44%     29.79        
May 12 16:00 NNW 7   Clear   79 40     25%   78 29.76        
May 12 12:10 NNW 7   Clear   75 41     29%   74 29.81        
May 12 11:40 N 5   Clear   74 42     31%   73 29.82        
May 12 00:40     Clear   66 34     31%     29.65        
May 11 23:10 W 7   Clear   65 41     40%     29.65        
May 11 22:30 WSW 12   Clear   67 36     32%     29.66        
May 11 22:00     Clear   66 38     36%              
May 11 18:00     Clear   81 37     21%   79 29.59        
Notice The following observation data may not be complete
May 11 11:20     Clear            %